Home > Weather > Tsingtao > Past weeks

Flag for China Weather for the Past 2 Weeks in Tsingtao, Shandong, China

Now
70 °F

Clear.


Feels Like: 70 °F
Forecast: 64 / 75 °F
Wind: 8 mph from South

Location: Qingdao Airport

Current Time: May 1, 2016 at 7:30:10 AM

Latest Report: May 1, 2016 at 6:00 AM


Visibility: 4 mi

Pressure: 29.71 "Hg

Humidity: 69%

Dew Point: 59 °F

Location of TsingtaoLocation

Historic Weather in Tsingtao — Graph

°F

Tsingtao Temperature Yesterday

Maximum temperature yesterday: 79 °F (at 2:00 PM)
Minimum temperature yesterday: 64 °F (at 2:00 AM)
Average temperature yesterday: 71 °F

High & Low Weather Summary for the Past Weeks

 TemperatureHumidityPressure
High81 °F (Apr 21, 3:00 PM)100% (Apr 16, 2:00 PM)30.18 "Hg (Apr 16, 2:00 PM)
Low45 °F (Apr 19, 4:00 AM)7% (Apr 22, 5:00 PM)29.47 "Hg (Apr 16, 2:00 PM)
Average62 °F49%29.89 "Hg
* Reported Apr 16 5:00 AM — May 1 5:00 AM, Tsingtao, Weather by CustomWeather, © 2016

Note: Actual official high and low records may vary slightly from our data, if they occured in-between our weather recording intervals... More about our weather records

Advertising

Tsingtao Weather History for the Previous 24 Hours

Scroll right to see more
 ConditionsComfort  
Time TempWeatherWind HumidityBarometerVisibility
5:00 AM
Sun, May 1
68 °FFog.8 mph73%29.71 "Hg3 mi
4:00 AM68 °FClear.8 mph73%29.71 "Hg4 mi
3:00 AM68 °FClear.8 mph73%29.71 "Hg4 mi
2:00 AM68 °FClear.10 mph73%29.71 "Hg4 mi
1:00 AM68 °FClear.10 mph69%29.71 "Hg4 mi
12:00 AM70 °FClear.13 mph64%29.71 "Hg4 mi
11:00 PM
Sat, Apr 30
70 °FClear.15 mph64%29.71 "Hg4 mi
10:00 PM70 °FClear.15 mph64%29.71 "Hg4 mi
9:00 PM70 °FClear.15 mph60%29.71 "Hg4 mi
8:00 PM72 °FHaze.15 mph61%29.68 "Hg3 mi
7:00 PM72 °FHaze.15 mph57%29.68 "Hg3 mi
6:00 PM72 °FClear.13 mph57%29.65 "Hg4 mi
5:00 PM75 °FClear.15 mph50%29.65 "Hg4 mi
4:00 PM79 °FClear.15 mph45%29.65 "Hg4 mi
3:00 PM79 °FClear.20 mph42%29.65 "Hg4 mi
2:00 PM79 °FClear.17 mph42%29.68 "Hg4 mi
1:00 PM75 °FHaze.17 mph44%29.68 "Hg3 mi
12:00 PM75 °FPassing clouds.10 mph44%29.71 "Hg4 mi
11:00 AM77 °FClear.15 mph42%29.71 "Hg4 mi
10:00 AM75 °FPassing clouds.17 mph47%29.74 "Hg4 mi
9:00 AM72 °FScattered clouds.20 mph47%29.74 "Hg4 mi
8:00 AM70 °FClear.15 mph50%29.74 "Hg4 mi
7:00 AM66 °FClear.10 mph56%29.77 "Hg4 mi
Weather by CustomWeather, © 2016

See weather overviewHow to use our weather pages